Ely, NV

3:05 AM PDT on June 26, 2017 (GMT -0700)
Ely

Weather History for KELY - April, 2013

Change the Weather History Date:

Tuesday, April 30, 2013

  Actual Average Record
Temperature  
Mean Temperature 51 °F 46 °F  
Max Temperature 68 °F 62 °F 78 °F (1959)
Min Temperature 34 °F 30 °F 7 °F (1967)
Degree Days  
Heating Degree Days 14 19  
Month to date heating degree days 655 677  
Since 1 July heating degree days 6635 6903  
Cooling Degree Days 0 0  
Month to date cooling degree days 0 0  
Year to date cooling degree days 0 0  
Growing Degree Days 1 (Base 50)    
Moisture  
Dew Point 17 °F    
Average Humidity 41    
Maximum Humidity 69    
Minimum Humidity 12    
Precipitation  
Precipitation 0.00 in 0.04 in 0.63 in (1983)
Month to date precipitation 0.86 0.95  
Year to date precipitation 2.56 3.33  
Snow  
Snow 0.00 in 0.10 in 4.20 in (1983)
Month to date snowfall 6.5 5.2  
Since 1 July snowfall 65.0 48.4  
Snow Depth 0.00 in    
Sea Level Pressure  
Sea Level Pressure 29.74 in    
Wind  
Wind Speed 12 mph (WNW)    
Max Wind Speed 24 mph    
Max Gust Speed 35 mph    
Visibility 10 miles    
Events      
T = Trace of Precipitation, MM = Missing Value Source: NWS Daily Summary

Daily Weather History Graph

Daily Weather History Graph

Search for Another Location

Airport or City:

Trip Planner

Search our weather history database for the weather conditions in past years. The results will help you decide how hot, cold, wet, or windy it might be!

Date:

Astronomy

Apr. 30, 2013 Rise Set
Actual Time 5:41 AM PDT 7:32 PM PDT
Civil Twilight 5:12 AM PDT 8:01 PM PDT
Nautical Twilight 4:37 AM PDT 8:36 PM PDT
Astronomical Twilight 4:00 AM PDT 9:14 PM PDT
Moon No Moon Rise 10:15 AM PDT (4/30)
Length of Visible Light 14h 48m
Length of Day
13h 50m
Waning Gibbous, 69% of the Moon is Illuminated
Apr 30
Waning Gibbous
May 2
Last Quarter
May 9
New
May 17
First Quarter
May 24
Full

Hourly Weather History & Observations

Time (PDT) Temp. Windchill Dew Point Humidity Pressure Visibility Wind Dir Wind Speed Gust Speed Precip Events Conditions
12:53 AM 46.9 °F - 24.1 °F 41% 29.64 in 10.0 mi West 6.9 mph - N/A   Clear
1:53 AM 41.0 °F 36.4 °F 21.9 °F 47% 29.65 in 10.0 mi SSE 6.9 mph - N/A   Clear
2:53 AM 39.0 °F 35.7 °F 21.9 °F 50% 29.67 in 10.0 mi South 4.6 mph - N/A   Clear
3:53 AM 37.0 °F 32.4 °F 23.0 °F 57% 29.67 in 10.0 mi SSE 5.8 mph - N/A   Clear
4:53 AM 36.0 °F 28.5 °F 23.0 °F 59% 29.68 in 10.0 mi South 10.4 mph - N/A   Clear
5:53 AM 34.0 °F 28.8 °F 24.1 °F 67% 29.69 in 10.0 mi South 5.8 mph - N/A   Clear
6:53 AM 42.1 °F 38.4 °F 27.0 °F 55% 29.67 in 10.0 mi South 5.8 mph - N/A   Clear
7:53 AM 53.1 °F - 30.9 °F 43% 29.67 in 10.0 mi East 5.8 mph - N/A   Clear
8:53 AM 59.0 °F - 30.9 °F 35% 29.66 in 10.0 mi NW 15.0 mph 21.9 mph N/A   Scattered Clouds
9:53 AM 60.1 °F - 30.9 °F 33% 29.67 in 10.0 mi West 15.0 mph 20.7 mph N/A   Clear
10:53 AM 63.0 °F - 28.0 °F 27% 29.66 in 10.0 mi West 11.5 mph 28.8 mph N/A   Clear
11:53 AM 64.0 °F - 28.0 °F 26% 29.69 in 10.0 mi West 16.1 mph 25.3 mph N/A   Clear
12:53 PM 63.0 °F - 26.1 °F 25% 29.70 in 10.0 mi Variable 6.9 mph 29.9 mph N/A   Clear
1:53 PM 64.9 °F - 21.9 °F 19% 29.70 in 10.0 mi NW 10.4 mph 26.5 mph N/A   Clear
2:53 PM 66.9 °F - 17.1 °F 15% 29.69 in 10.0 mi WNW 12.7 mph 28.8 mph N/A   Clear
3:53 PM 64.9 °F - 14.0 °F 14% 29.70 in 10.0 mi West 23.0 mph 28.8 mph N/A   Clear
4:53 PM 64.0 °F - 10.9 °F 13% 29.73 in 10.0 mi WNW 18.4 mph 28.8 mph N/A   Clear
5:53 PM 61.0 °F - 8.1 °F 12% 29.77 in 10.0 mi NW 17.3 mph 29.9 mph N/A   Clear
6:53 PM 54.0 °F - 7.0 °F 15% 29.81 in 10.0 mi North 24.2 mph 31.1 mph N/A   Clear
7:53 PM 48.0 °F - 3.9 °F 16% 29.83 in 10.0 mi North 10.4 mph - N/A   Clear
8:53 PM 46.0 °F 39.3 °F -0.0 °F 15% 29.86 in 10.0 mi North 16.1 mph - N/A   Clear
9:53 PM 43.0 °F 38.2 °F -2.0 °F 15% 29.91 in 10.0 mi North 8.1 mph - N/A   Clear
10:53 PM 41.0 °F 32.8 °F -2.0 °F 16% 29.93 in 10.0 mi North 16.1 mph - N/A   Clear
11:53 PM 37.0 °F 27.7 °F -0.9 °F 20% 29.97 in 10.0 mi North 16.1 mph - N/A   Clear